Regional Weather Roundup
Issued by NWS Goodland, KS

Home | Current Version | Previous Version | Graphics & Text | Print | Product List | Glossary On
Versions: 1 2 3 4 5 6 7 8 9 10 11 12 13 14 15 16 17 18 19 20 21 22 23 24 25 26 27 28 29 30 31 32 33 34 35 36 37 38 39 40 41 42 43 44 45 46 47 48 49 50
000
ASUS43 KGLD 250508
RWRGLD

GOODLAND FORECAST AREA HOURLY WEATHER ROUNDUP
NATIONAL WEATHER SERVICE GOODLAND KS
1100 PM MDT THU JUL 24 2014

...OFFICIAL OBSERVATIONS...

CITY           SKY/WX    TMP DP  RH WIND       PRES   REMARKS
GOODLAND KS    MOCLDY    83  50  31 SW13      29.94R
HILL CITY KS   CLOUDY    85  69  58 S17G30    29.84F
IMPERIAL NEB   PTCLDY    74  57  55 S5        29.87F
MCCOOK NEB     MOCLDY    80  61  52 S7        29.84F
AKRON CO       MOCLDY    75  53  46 SW13      30.03S
BURLINGTON CO  CLOUDY    80  51  36 NW14      29.99R
LIMON CO       CLOUDY    69  56  62 CALM      30.07F
$$

...UNOFFICIAL OBSERVATIONS...

CITY           SKY/WX    TMP DP  RH WIND       PRES   REMARKS
COLBY KS       CLEAR     84  57  39 S14G20    29.91R
GOVE KS          N/A     82  32  16 MISG        N/A
LENORA KS        N/A     84  32  15 MISG        N/A
NORTON KS      CLEAR     84  64  51 S17G29    29.84R
OBERLIN KS     FAIR      84  61  45 S14G20    29.85R
SHARON SPRINGS   N/A     81  54  39 S12         N/A
ST FRANCIS KS  MOCLDY    73  52  46 W20G26    29.94R
TRIBUNE KS     PTCLDY    82 N/A N/A S21G26    29.96S
WAKEENEY KS      N/A     84  65  52 MISG        N/A
KIT CARSON CO    N/A     84  50  30 CALM        N/A
YUMA CO          N/A     70  56  61 S8          N/A
$$



USA.gov is the U.S. government's official web portal to all federal, state and local government web resources and services.